Time,TemperatureF,DewpointF,PressureIn,WindDirection,WindDirectionDegrees,WindSpeedMPH,WindSpeedGustMPH,Humidity,HourlyPrecipIn,Conditions,Clouds,dailyrainin,SolarRadiationWatts/m^2,SoftwareType,DateUTC
2013-02-06 00:00:00,34.6,27.2,30.05,North,5,3.0,13.0,74,0.00,,---,0.00,0.00,VWS V14.01,2013-02-06 08:00:00,
2013-02-06 00:05:00,34.6,27.2,30.05,North,9,3.0,7.0,74,0.00,,---,0.00,0.00,VWS V14.01,2013-02-06 08:05:00,
2013-02-06 00:10:00,34.4,27.0,30.05,NNE,16,3.0,7.0,74,0.00,,---,0.00,0.00,VWS V14.01,2013-02-06 08:10:00,
2013-02-06 00:15:00,34.4,27.0,30.05,NE,38,3.0,7.0,74,0.00,,---,0.00,0.00,VWS V14.01,2013-02-06 08:15:00,
2013-02-06 00:20:00,34.5,27.4,30.06,NNE,30,4.0,9.0,75,0.00,,---,0.00,0.00,VWS V14.01,2013-02-06 08:20:00,
2013-02-06 00:25:00,34.5,27.7,30.06,North,10,5.0,9.0,76,0.00,,---,0.00,0.00,VWS V14.01,2013-02-06 08:25:00,
2013-02-06 00:30:00,34.5,27.7,30.06,NNE,13,2.0,9.0,76,0.00,,---,0.00,0.00,VWS V14.01,2013-02-06 08:30:00,
2013-02-06 00:35:00,34.5,27.7,30.06,North,5,2.0,9.0,76,0.00,,---,0.00,0.00,VWS V14.01,2013-02-06 08:35:00,
2013-02-06 00:40:00,34.6,27.2,30.06,North,355,3.0,9.0,74,0.00,,---,0.00,0.00,VWS V14.01,2013-02-06 08:40:00,
2013-02-06 00:45:00,34.7,27.3,30.06,NNE,15,4.0,9.0,74,0.00,,---,0.00,0.00,VWS V14.01,2013-02-06 08:45:00,
2013-02-06 00:50:00,34.8,27.0,30.06,NNE,22,3.0,9.0,73,0.00,,---,0.00,0.00,VWS V14.01,2013-02-06 08:50:00,
2013-02-06 00:54:00,35.0,26.9,30.06,NNW,341,3.0,9.0,72,0.00,,---,0.00,0.00,VWS V14.01,2013-02-06 08:54:00,
2013-02-06 00:59:00,35.2,27.1,30.07,North,355,6.0,9.0,72,0.00,,---,0.00,0.00,VWS V14.01,2013-02-06 08:59:00,
2013-02-06 01:04:00,35.2,27.1,30.07,NE,37,1.0,6.0,72,0.00,,---,0.00,0.00,VWS V14.01,2013-02-06 09:04:00,
2013-02-06 01:09:00,35.2,27.1,30.07,North,350,5.0,8.0,72,0.00,,---,0.00,0.00,VWS V14.01,2013-02-06 09:09:00,
2013-02-06 01:14:00,35.1,27.0,30.06,North,355,2.0,8.0,72,0.00,,---,0.00,0.00,VWS V14.01,2013-02-06 09:14:00,
2013-02-06 01:19:00,35.1,27.3,30.07,North,5,5.0,8.0,73,0.00,,---,0.00,0.00,VWS V14.01,2013-02-06 09:19:00,
2013-02-06 01:24:00,35.1,27.3,30.07,North,355,1.0,8.0,73,0.00,,---,0.00,0.00,VWS V14.01,2013-02-06 09:24:00,
2013-02-06 01:29:00,35.0,27.2,30.06,North,360,3.0,8.0,73,0.00,,---,0.00,0.00,VWS V14.01,2013-02-06 09:29:00,
2013-02-06 01:34:00,34.9,27.1,30.06,NNW,336,5.0,6.0,73,0.00,,---,0.00,0.00,VWS V14.01,2013-02-06 09:34:00,
2013-02-06 01:39:00,34.7,27.3,30.07,North,5,5.0,11.0,74,0.00,,---,0.00,0.00,VWS V14.01,2013-02-06 09:39:00,
2013-02-06 01:45:00,34.6,27.5,30.07,NNE,32,5.0,11.0,75,0.00,,---,0.00,0.00,VWS V14.01,2013-02-06 09:45:00,
2013-02-06 01:50:00,34.5,27.4,30.07,North,5,4.0,11.0,75,0.00,,---,0.00,0.00,VWS V14.01,2013-02-06 09:50:00,
2013-02-06 01:55:00,34.5,27.4,30.07,NW,323,7.0,11.0,75,0.00,,---,0.00,0.00,VWS V14.01,2013-02-06 09:55:00,
2013-02-06 02:00:00,34.3,27.5,30.08,NW,325,4.0,11.0,76,0.00,,---,0.00,0.00,VWS V14.01,2013-02-06 10:00:00,
2013-02-06 02:05:00,34.2,27.4,30.07,North,355,3.0,8.0,76,0.00,,---,0.00,0.00,VWS V14.01,2013-02-06 10:05:00,
2013-02-06 02:10:00,34.2,27.1,30.07,North,355,3.0,8.0,75,0.00,,---,0.00,0.00,VWS V14.01,2013-02-06 10:10:00,
2013-02-06 02:15:00,34.2,27.1,30.07,NW,316,4.0,10.0,75,0.00,,---,0.00,0.00,VWS V14.01,2013-02-06 10:15:00,
2013-02-06 02:20:00,34.2,27.4,30.08,North,360,3.0,10.0,76,0.00,,---,0.00,0.00,VWS V14.01,2013-02-06 10:20:00,
2013-02-06 02:25:00,34.0,26.9,30.08,NNE,21,4.0,10.0,75,0.00,,---,0.00,0.00,VWS V14.01,2013-02-06 10:25:00,
2013-02-06 02:30:00,33.9,26.8,30.08,North,360,6.0,11.0,75,0.00,,---,0.00,0.00,VWS V14.01,2013-02-06 10:30:00,
2013-02-06 02:35:00,33.9,26.8,30.08,NE,55,4.0,10.0,75,0.00,,---,0.00,0.00,VWS V14.01,2013-02-06 10:35:00,
2013-02-06 02:40:00,34.0,26.9,30.08,North,355,6.0,13.0,75,0.00,,---,0.00,0.00,VWS V14.01,2013-02-06 10:40:00,
2013-02-06 02:45:00,34.1,27.0,30.08,NE,44,6.0,13.0,75,0.00,,---,0.00,0.00,VWS V14.01,2013-02-06 10:45:00,
2013-02-06 02:50:00,34.1,26.7,30.08,NE,34,8.0,13.0,74,0.00,,---,0.00,0.00,VWS V14.01,2013-02-06 10:50:00,
2013-02-06 02:55:00,34.0,26.6,30.08,ENE,58,9.0,13.0,74,0.00,,---,0.00,0.00,VWS V14.01,2013-02-06 10:55:00,
2013-02-06 03:00:00,34.0,26.6,30.08,ENE,62,9.0,13.0,74,0.00,,---,0.00,0.00,VWS V14.01,2013-02-06 11:00:00,
2013-02-06 03:05:00,34.0,26.6,30.08,ENE,58,8.0,12.0,74,0.00,,---,0.00,0.00,VWS V14.01,2013-02-06 11:05:00,
2013-02-06 03:10:00,34.1,26.7,30.07,ENE,59,10.0,14.0,74,0.00,,---,0.00,0.00,VWS V14.01,2013-02-06 11:10:00,
2013-02-06 03:15:00,34.1,26.7,30.07,NE,49,8.0,14.0,74,0.00,,---,0.00,0.00,VWS V14.01,2013-02-06 11:15:00,
2013-02-06 03:20:00,34.2,27.1,30.07,NE,51,8.0,15.0,75,0.00,,---,0.00,0.00,VWS V14.01,2013-02-06 11:20:00,
2013-02-06 03:25:00,34.3,26.9,30.07,ENE,59,8.0,15.0,74,0.00,,---,0.00,0.00,VWS V14.01,2013-02-06 11:25:00,
2013-02-06 03:30:00,34.3,26.9,30.08,NNE,29,10.0,15.0,74,0.00,,---,0.00,0.00,VWS V14.01,2013-02-06 11:30:00,
2013-02-06 03:35:00,34.4,26.7,30.08,NE,34,8.0,12.0,73,0.00,,---,0.00,0.00,VWS V14.01,2013-02-06 11:35:00,
2013-02-06 03:40:00,34.5,26.8,30.08,NNE,30,7.0,15.0,73,0.00,,---,0.00,0.00,VWS V14.01,2013-02-06 11:40:00,
2013-02-06 03:45:00,34.5,26.8,30.08,NE,49,5.0,16.0,73,0.00,,---,0.00,0.00,VWS V14.01,2013-02-06 11:45:00,
2013-02-06 03:50:00,34.4,26.7,30.08,NNE,19,6.0,16.0,73,0.00,,---,0.00,0.00,VWS V14.01,2013-02-06 11:50:00,
2013-02-06 03:55:00,34.4,26.7,30.08,NE,56,4.0,16.0,73,0.00,,---,0.00,0.00,VWS V14.01,2013-02-06 11:55:00,
2013-02-06 04:00:00,34.4,26.7,30.08,NNE,31,9.0,16.0,73,0.00,,---,0.00,0.00,VWS V14.01,2013-02-06 12:00:00,
2013-02-06 04:05:00,34.4,26.7,30.08,ENE,61,8.0,12.0,73,0.00,,---,0.00,0.00,VWS V14.01,2013-02-06 12:05:00,
2013-02-06 04:10:00,34.4,26.7,30.08,ENE,61,9.0,12.0,73,0.00,,---,0.00,0.00,VWS V14.01,2013-02-06 12:10:00,
2013-02-06 04:15:00,34.4,26.7,30.08,NE,42,5.0,12.0,73,0.00,,---,0.00,0.00,VWS V14.01,2013-02-06 12:15:00,
2013-02-06 04:20:00,34.3,26.6,30.08,North,355,5.0,12.0,73,0.00,,---,0.00,0.00,VWS V14.01,2013-02-06 12:20:00,
2013-02-06 04:25:00,34.3,26.6,30.09,NE,39,8.0,12.0,73,0.00,,---,0.00,0.00,VWS V14.01,2013-02-06 12:25:00,
2013-02-06 04:30:00,34.4,26.7,30.08,NE,55,6.0,13.0,73,0.00,,---,0.00,0.00,VWS V14.01,2013-02-06 12:30:00,
2013-02-06 04:35:00,34.4,26.7,30.09,NE,34,8.0,11.0,73,0.00,,---,0.00,0.00,VWS V14.01,2013-02-06 12:35:00,
2013-02-06 04:40:00,34.6,26.9,30.09,NE,37,5.0,11.0,73,0.00,,---,0.00,0.00,VWS V14.01,2013-02-06 12:40:00,
2013-02-06 04:45:00,34.6,26.5,30.09,North,355,7.0,11.0,72,0.00,,---,0.00,0.00,VWS V14.01,2013-02-06 12:45:00,
2013-02-06 04:50:00,34.6,26.5,30.09,NE,53,7.0,11.0,72,0.00,,---,0.00,0.00,VWS V14.01,2013-02-06 12:50:00,
2013-02-06 04:55:00,34.4,26.7,30.09,NNE,29,8.0,11.0,73,0.00,,---,0.00,0.00,VWS V14.01,2013-02-06 12:55:00,
2013-02-06 05:00:00,34.4,26.7,30.09,NE,53,8.0,12.0,73,0.00,,---,0.00,0.00,VWS V14.01,2013-02-06 13:00:00,
2013-02-06 05:05:00,34.4,26.7,30.09,NNE,17,6.0,12.0,73,0.00,,---,0.00,0.00,VWS V14.01,2013-02-06 13:05:00,
2013-02-06 05:10:00,34.3,26.6,30.09,NNE,31,5.0,12.0,73,0.00,,---,0.00,0.00,VWS V14.01,2013-02-06 13:10:00,
2013-02-06 05:15:00,34.2,26.5,30.09,NNE,25,3.0,12.0,73,0.00,,---,0.00,0.00,VWS V14.01,2013-02-06 13:15:00,
2013-02-06 05:20:00,34.0,26.6,30.09,North,5,3.0,12.0,74,0.00,,---,0.00,0.00,VWS V14.01,2013-02-06 13:20:00,
2013-02-06 05:25:00,33.9,26.5,30.09,NNW,333,6.0,12.0,74,0.00,,---,0.00,0.00,VWS V14.01,2013-02-06 13:25:00,
2013-02-06 05:30:00,33.7,26.6,30.09,NNE,18,8.0,12.0,75,0.00,,---,0.00,0.00,VWS V14.01,2013-02-06 13:30:00,
2013-02-06 05:35:00,33.7,26.6,30.09,NNE,28,4.0,10.0,75,0.00,,---,0.00,0.00,VWS V14.01,2013-02-06 13:35:00,
2013-02-06 05:40:00,33.6,26.5,30.09,ENE,57,5.0,10.0,75,0.00,,---,0.00,0.00,VWS V14.01,2013-02-06 13:40:00,
2013-02-06 05:45:00,33.6,26.5,30.09,NE,56,4.0,11.0,75,0.00,,---,0.00,0.00,VWS V14.01,2013-02-06 13:45:00,
2013-02-06 05:50:00,33.6,26.2,30.09,NNE,28,11.0,11.0,74,0.00,,---,0.00,0.00,VWS V14.01,2013-02-06 13:50:00,
2013-02-06 05:55:00,33.5,26.1,30.10,NE,43,3.0,12.0,74,0.00,,---,0.00,0.00,VWS V14.01,2013-02-06 13:55:00,
2013-02-06 06:00:00,33.4,26.3,30.10,NNE,24,10.0,12.0,75,0.00,,---,0.00,0.00,VWS V14.01,2013-02-06 14:00:00,
2013-02-06 06:05:00,33.4,26.3,30.10,NNE,33,5.0,9.0,75,0.00,,---,0.00,0.00,VWS V14.01,2013-02-06 14:05:00,
2013-02-06 06:10:00,33.4,26.0,30.10,NE,34,7.0,12.0,74,0.00,,---,0.00,0.00,VWS V14.01,2013-02-06 14:10:00,
2013-02-06 06:15:00,33.5,26.1,30.10,North,5,5.0,12.0,74,0.00,,---,0.00,0.00,VWS V14.01,2013-02-06 14:15:00,
2013-02-06 06:20:00,33.5,26.1,30.09,NE,36,6.0,12.0,74,0.00,,---,0.00,0.00,VWS V14.01,2013-02-06 14:20:00,
2013-02-06 06:25:00,33.5,25.5,30.09,ENE,63,8.0,13.0,72,0.00,,---,0.00,0.00,VWS V14.01,2013-02-06 14:25:00,
2013-02-06 06:30:00,33.7,25.6,30.09,NNE,14,8.0,13.0,72,0.00,,---,0.00,0.00,VWS V14.01,2013-02-06 14:30:00,
2013-02-06 06:35:00,33.9,25.5,30.10,NE,55,6.0,16.0,71,0.00,,---,0.00,0.00,VWS V14.01,2013-02-06 14:35:00,
2013-02-06 06:40:00,33.9,25.5,30.10,NE,49,4.0,16.0,71,0.00,,---,0.00,0.00,VWS V14.01,2013-02-06 14:40:00,
2013-02-06 06:45:00,34.0,25.3,30.09,NE,44,5.0,16.0,70,0.00,,---,0.00,0.00,VWS V14.01,2013-02-06 14:45:00,
2013-02-06 06:50:00,34.0,25.3,30.09,NNE,27,11.0,16.0,70,0.00,,---,0.00,0.00,VWS V14.01,2013-02-06 14:50:00,
2013-02-06 06:55:00,33.9,25.2,30.09,NNE,24,8.0,16.0,70,0.00,,---,0.00,0.00,VWS V14.01,2013-02-06 14:55:00,
2013-02-06 07:00:00,33.8,25.4,30.09,NE,34,8.0,16.0,71,0.00,,---,0.00,0.00,VWS V14.01,2013-02-06 15:00:00,
2013-02-06 07:05:00,33.7,25.3,30.09,NNE,33,6.0,12.0,71,0.00,,---,0.00,0.00,VWS V14.01,2013-02-06 15:05:00,
2013-02-06 07:10:00,33.5,25.5,30.09,North,5,7.0,12.0,72,0.00,,---,0.00,0.00,VWS V14.01,2013-02-06 15:10:00,
2013-02-06 07:15:00,33.4,25.4,30.09,NNE,26,5.0,14.0,72,0.00,,---,0.00,0.00,VWS V14.01,2013-02-06 15:15:00,
2013-02-06 07:20:00,33.5,25.5,30.09,NE,46,8.0,14.0,72,0.00,,---,0.00,7.00,VWS V14.01,2013-02-06 15:20:00,
2013-02-06 07:25:00,33.7,25.3,30.10,NE,42,8.0,16.0,71,0.00,,---,0.00,9.00,VWS V14.01,2013-02-06 15:25:00,
2013-02-06 07:30:00,33.8,25.4,30.10,North,355,5.0,16.0,71,0.00,,---,0.00,11.00,VWS V14.01,2013-02-06 15:30:00,
2013-02-06 07:35:00,33.9,25.5,30.10,NNE,29,7.0,14.0,71,0.00,,---,0.00,12.00,VWS V14.01,2013-02-06 15:35:00,
2013-02-06 07:40:00,33.9,25.5,30.10,ENE,61,7.0,15.0,71,0.00,,---,0.00,14.00,VWS V14.01,2013-02-06 15:40:00,
2013-02-06 07:45:00,33.8,25.4,30.10,NNE,32,5.0,15.0,71,0.00,,---,0.00,16.00,VWS V14.01,2013-02-06 15:45:00,
2013-02-06 07:50:00,33.8,25.4,30.10,North,349,8.0,15.0,71,0.00,,---,0.00,18.00,VWS V14.01,2013-02-06 15:50:00,
2013-02-06 07:55:00,33.9,25.5,30.11,NE,49,5.0,16.0,71,0.00,,---,0.00,19.00,VWS V14.01,2013-02-06 15:55:00,
2013-02-06 08:00:00,33.9,25.5,30.11,ENE,65,17.0,17.0,71,0.00,,---,0.00,21.00,VWS V14.01,2013-02-06 16:00:00,
2013-02-06 08:05:00,33.9,25.5,30.11,NE,50,7.0,10.0,71,0.00,,---,0.00,25.00,VWS V14.01,2013-02-06 16:05:00,
2013-02-06 08:10:00,34.0,25.6,30.11,ENE,65,8.0,14.0,71,0.00,,---,0.00,26.00,VWS V14.01,2013-02-06 16:10:00,
2013-02-06 08:15:00,34.0,25.6,30.12,NE,44,5.0,14.0,71,0.00,,---,0.00,30.00,VWS V14.01,2013-02-06 16:15:00,
2013-02-06 08:20:00,34.1,25.7,30.12,NNE,19,6.0,14.0,71,0.00,,---,0.00,33.00,VWS V14.01,2013-02-06 16:20:00,
2013-02-06 08:25:00,34.1,26.0,30.12,NE,34,4.0,14.0,72,0.00,,---,0.00,37.00,VWS V14.01,2013-02-06 16:25:00,
2013-02-06 08:30:00,34.0,26.3,30.12,NNE,20,10.0,14.0,73,0.00,,---,0.00,40.00,VWS V14.01,2013-02-06 16:30:00,
2013-02-06 08:35:00,34.0,25.9,30.12,NNE,27,7.0,12.0,72,0.00,,---,0.00,44.00,VWS V14.01,2013-02-06 16:35:00,
2013-02-06 08:40:00,34.1,26.4,30.12,NNE,31,7.0,12.0,73,0.00,,---,0.00,44.00,VWS V14.01,2013-02-06 16:40:00,
2013-02-06 08:45:00,34.2,26.1,30.13,NE,55,10.0,12.0,72,0.00,,---,0.00,46.00,VWS V14.01,2013-02-06 16:45:00,
2013-02-06 08:50:00,34.4,26.3,30.13,NNE,26,7.0,13.0,72,0.00,,---,0.00,49.00,VWS V14.01,2013-02-06 16:50:00,
2013-02-06 08:55:00,34.6,26.2,30.13,NE,47,5.0,13.0,71,0.00,,---,0.00,51.00,VWS V14.01,2013-02-06 16:55:00,
2013-02-06 09:00:00,34.8,26.4,30.13,ENE,74,8.0,13.0,71,0.00,,---,0.00,51.00,VWS V14.01,2013-02-06 17:00:00,
2013-02-06 09:05:00,35.1,26.7,30.13,NNE,30,7.0,10.0,71,0.00,,---,0.00,51.00,VWS V14.01,2013-02-06 17:05:00,
2013-02-06 09:10:00,35.5,26.4,30.13,NNE,21,5.0,11.0,69,0.00,,---,0.00,58.00,VWS V14.01,2013-02-06 17:10:00,
2013-02-06 09:15:00,35.9,26.4,30.13,NE,46,5.0,11.0,68,0.00,,---,0.00,60.00,VWS V14.01,2013-02-06 17:15:00,
2013-02-06 09:20:00,36.3,26.0,30.13,ENE,67,5.0,11.0,66,0.00,,---,0.00,63.00,VWS V14.01,2013-02-06 17:20:00,
2013-02-06 09:25:00,36.6,26.0,30.13,NE,49,8.0,14.0,65,0.00,,---,0.00,74.00,VWS V14.01,2013-02-06 17:25:00,
2013-02-06 09:30:00,36.9,26.6,30.13,NE,53,8.0,16.0,66,0.00,,---,0.00,86.00,VWS V14.01,2013-02-06 17:30:00,
2013-02-06 09:35:00,37.0,26.3,30.12,North,11,8.0,12.0,65,0.00,,---,0.00,83.00,VWS V14.01,2013-02-06 17:35:00,
2013-02-06 09:40:00,37.0,26.3,30.13,NE,36,7.0,16.0,65,0.00,,---,0.00,90.00,VWS V14.01,2013-02-06 17:40:00,
2013-02-06 09:45:00,37.1,26.4,30.12,NE,56,8.0,17.0,65,0.00,,---,0.00,95.00,VWS V14.01,2013-02-06 17:45:00,
2013-02-06 09:50:00,37.3,26.6,30.12,NNE,17,3.0,17.0,65,0.00,,---,0.00,98.00,VWS V14.01,2013-02-06 17:50:00,
2013-02-06 09:55:00,37.4,26.0,30.12,NE,44,8.0,17.0,63,0.00,,---,0.00,104.00,VWS V14.01,2013-02-06 17:55:00,
2013-02-06 10:00:00,37.5,26.1,30.12,NE,34,6.0,17.0,63,0.00,,---,0.00,113.00,VWS V14.01,2013-02-06 18:00:00,
2013-02-06 10:05:00,37.5,25.7,30.12,NNW,337,9.0,17.0,62,0.00,,---,0.00,118.00,VWS V14.01,2013-02-06 18:05:00,
2013-02-06 10:10:00,37.8,25.6,30.12,NE,46,10.0,17.0,61,0.00,,---,0.00,156.00,VWS V14.01,2013-02-06 18:10:00,
2013-02-06 10:15:00,38.1,26.2,30.12,ENE,57,7.0,17.0,62,0.00,,---,0.00,139.00,VWS V14.01,2013-02-06 18:15:00,
2013-02-06 10:20:00,38.6,26.3,30.12,ESE,103,7.0,17.0,61,0.00,,---,0.00,417.00,VWS V14.01,2013-02-06 18:20:00,
2013-02-06 10:25:00,39.1,26.0,30.12,NE,38,8.0,17.0,59,0.00,,---,0.00,323.00,VWS V14.01,2013-02-06 18:25:00,
2013-02-06 10:30:00,39.3,25.8,30.12,ENE,60,12.0,17.0,58,0.00,,---,0.00,338.00,VWS V14.01,2013-02-06 18:30:00,
2013-02-06 10:35:00,39.5,26.0,30.12,ENE,59,10.0,14.0,58,0.00,,---,0.00,367.00,VWS V14.01,2013-02-06 18:35:00,
2013-02-06 10:40:00,39.6,25.2,30.12,NE,44,11.0,17.0,56,0.00,,---,0.00,373.00,VWS V14.01,2013-02-06 18:40:00,
2013-02-06 10:45:00,39.6,25.6,30.11,NNE,29,8.0,17.0,57,0.00,,---,0.00,431.00,VWS V14.01,2013-02-06 18:45:00,
2013-02-06 10:50:00,39.6,25.2,30.11,ENE,67,4.0,18.0,56,0.00,,---,0.00,383.00,VWS V14.01,2013-02-06 18:50:00,
2013-02-06 10:55:00,39.7,25.3,30.11,NE,47,4.0,18.0,56,0.00,,---,0.00,200.00,VWS V14.01,2013-02-06 18:55:00,
2013-02-06 11:00:00,39.7,24.9,30.12,NE,37,7.0,18.0,55,0.00,,---,0.00,302.00,VWS V14.01,2013-02-06 19:00:00,
2013-02-06 11:05:00,40.1,25.2,30.12,ENE,63,9.0,13.0,55,0.00,,---,0.00,380.00,VWS V14.01,2013-02-06 19:05:00,
2013-02-06 11:10:00,40.1,24.8,30.12,ENE,67,8.0,14.0,54,0.00,,---,0.00,199.00,VWS V14.01,2013-02-06 19:10:00,
2013-02-06 11:15:00,39.9,25.1,30.12,NE,54,8.0,14.0,55,0.00,,---,0.00,207.00,VWS V14.01,2013-02-06 19:15:00,
2013-02-06 11:20:00,40.0,24.7,30.12,East,90,9.0,22.0,54,0.00,,---,0.00,285.00,VWS V14.01,2013-02-06 19:20:00,
2013-02-06 11:25:00,40.2,24.9,30.12,North,9,7.0,22.0,54,0.00,,---,0.00,216.00,VWS V14.01,2013-02-06 19:25:00,
2013-02-06 11:30:00,40.7,24.9,30.11,NE,47,7.0,22.0,53,0.00,,---,0.00,508.00,VWS V14.01,2013-02-06 19:30:00,
2013-02-06 11:35:00,41.4,25.1,30.11,ENE,65,5.0,11.0,52,0.00,,---,0.00,417.00,VWS V14.01,2013-02-06 19:35:00,
2013-02-06 11:40:00,42.0,25.2,30.11,NE,52,9.0,13.0,51,0.00,,---,0.00,390.00,VWS V14.01,2013-02-06 19:40:00,
2013-02-06 11:44:00,42.2,25.4,30.10,NE,48,8.0,13.0,51,0.00,,---,0.00,322.00,VWS V14.01,2013-02-06 19:44:00,
2013-02-06 11:50:00,42.1,24.8,30.10,NE,36,8.0,14.0,50,0.00,,---,0.00,287.00,VWS V14.01,2013-02-06 19:50:00,
2013-02-06 11:55:00,41.9,25.1,30.09,ENE,59,4.0,14.0,51,0.00,,---,0.00,246.00,VWS V14.01,2013-02-06 19:55:00,
2013-02-06 12:00:00,41.9,25.6,30.09,NE,36,8.0,14.0,52,0.00,,---,0.00,288.00,VWS V14.01,2013-02-06 20:00:00,
2013-02-06 12:05:00,42.1,25.3,30.09,NE,36,10.0,16.0,51,0.00,,---,0.00,288.00,VWS V14.01,2013-02-06 20:05:00,
2013-02-06 12:09:00,42.2,25.4,30.08,NE,49,8.0,16.0,51,0.00,,---,0.00,294.00,VWS V14.01,2013-02-06 20:09:00,
2013-02-06 12:14:00,42.4,25.1,30.08,ENE,59,5.0,16.0,50,0.00,,---,0.00,279.00,VWS V14.01,2013-02-06 20:14:00,
2013-02-06 12:19:00,42.8,25.9,30.08,NE,45,4.0,16.0,51,0.00,,---,0.00,290.00,VWS V14.01,2013-02-06 20:19:00,
2013-02-06 12:24:00,43.1,25.3,30.07,NE,46,7.0,16.0,49,0.00,,---,0.00,272.00,VWS V14.01,2013-02-06 20:24:00,
2013-02-06 12:29:00,43.3,25.4,30.07,ENE,65,5.0,16.0,49,0.00,,---,0.00,260.00,VWS V14.01,2013-02-06 20:29:00,
2013-02-06 12:34:00,43.3,25.4,30.07,ENE,78,4.0,10.0,49,0.00,,---,0.00,241.00,VWS V14.01,2013-02-06 20:34:00,
2013-02-06 12:39:00,43.6,26.2,30.06,East,84,8.0,14.0,50,0.00,,---,0.00,308.00,VWS V14.01,2013-02-06 20:39:00,
2013-02-06 12:44:00,44.4,26.5,30.06,NE,50,7.0,14.0,49,0.00,,---,0.00,327.00,VWS V14.01,2013-02-06 20:44:00,
2013-02-06 12:49:00,44.8,26.3,30.06,North,9,12.0,14.0,48,0.00,,---,0.00,468.00,VWS V14.01,2013-02-06 20:49:00,
2013-02-06 12:54:00,44.9,25.4,30.06,NNE,14,9.0,14.0,46,0.00,,---,0.00,271.00,VWS V14.01,2013-02-06 20:54:00,
2013-02-06 12:59:00,44.4,25.5,30.06,ENE,76,16.0,16.0,47,0.00,,---,0.00,265.00,VWS V14.01,2013-02-06 20:59:00,
2013-02-06 13:04:00,44.1,25.2,30.06,ENE,69,9.0,12.0,47,0.00,,---,0.00,260.00,VWS V14.01,2013-02-06 21:04:00,
2013-02-06 13:09:00,44.0,25.1,30.06,NE,40,11.0,15.0,47,0.00,,---,0.00,279.00,VWS V14.01,2013-02-06 21:09:00,
2013-02-06 13:14:00,44.2,26.3,30.06,ENE,58,16.0,16.0,49,0.00,,---,0.00,301.00,VWS V14.01,2013-02-06 21:14:00,
2013-02-06 13:19:00,44.4,24.4,30.05,NE,40,5.0,16.0,45,0.00,,---,0.00,301.00,VWS V14.01,2013-02-06 21:19:00,
2013-02-06 13:24:00,44.8,25.3,30.05,ENE,65,10.0,16.0,46,0.00,,---,0.00,408.00,VWS V14.01,2013-02-06 21:24:00,
2013-02-06 13:29:00,45.1,25.6,30.05,ENE,67,4.0,16.0,46,0.00,,---,0.00,473.00,VWS V14.01,2013-02-06 21:29:00,
2013-02-06 13:34:00,45.3,25.2,30.05,NE,37,9.0,13.0,45,0.00,,---,0.00,207.00,VWS V14.01,2013-02-06 21:34:00,
2013-02-06 13:39:00,45.0,25.0,30.04,NNW,347,12.0,13.0,45,0.00,,---,0.00,211.00,VWS V14.01,2013-02-06 21:39:00,
2013-02-06 13:44:00,44.8,25.3,30.04,NNE,32,5.0,13.0,46,0.00,,---,0.00,204.00,VWS V14.01,2013-02-06 21:44:00,
2013-02-06 13:49:00,44.8,24.8,30.03,ENE,76,15.0,15.0,45,0.00,,---,0.00,230.00,VWS V14.01,2013-02-06 21:49:00,
2013-02-06 13:54:00,44.8,24.8,30.03,North,11,4.0,15.0,45,0.00,,---,0.00,243.00,VWS V14.01,2013-02-06 21:54:00,
2013-02-06 13:59:00,45.0,25.5,30.03,NE,51,7.0,15.0,46,0.00,,---,0.00,248.00,VWS V14.01,2013-02-06 21:59:00,
2013-02-06 14:04:00,45.2,25.1,30.02,NNE,22,4.0,11.0,45,0.00,,---,0.00,290.00,VWS V14.01,2013-02-06 22:04:00,
2013-02-06 14:09:00,45.4,24.2,30.02,NNE,20,7.0,11.0,43,0.00,,---,0.00,265.00,VWS V14.01,2013-02-06 22:09:00,
2013-02-06 14:14:00,45.8,25.7,30.02,NW,325,5.0,11.0,45,0.00,,---,0.00,494.00,VWS V14.01,2013-02-06 22:14:00,
2013-02-06 14:19:00,46.7,24.3,30.02,NNE,19,9.0,13.0,41,0.00,,---,0.00,476.00,VWS V14.01,2013-02-06 22:19:00,
2013-02-06 14:24:00,47.2,25.3,30.02,North,351,7.0,13.0,42,0.00,,---,0.00,457.00,VWS V14.01,2013-02-06 22:24:00,
2013-02-06 14:29:00,47.7,24.0,30.01,NNE,29,6.0,14.0,39,0.00,,---,0.00,434.00,VWS V14.01,2013-02-06 22:29:00,
2013-02-06 14:34:00,47.9,24.1,30.01,NE,38,11.0,17.0,39,0.00,,---,0.00,264.00,VWS V14.01,2013-02-06 22:34:00,
2013-02-06 14:39:00,47.4,23.7,30.01,ENE,63,14.0,17.0,39,0.00,,---,0.00,461.00,VWS V14.01,2013-02-06 22:39:00,
2013-02-06 14:44:00,47.4,23.7,30.01,ENE,69,10.0,17.0,39,0.00,,---,0.00,322.00,VWS V14.01,2013-02-06 22:44:00,
2013-02-06 14:49:00,47.3,23.6,30.01,ENE,75,5.0,17.0,39,0.00,,---,0.00,262.00,VWS V14.01,2013-02-06 22:49:00,
2013-02-06 14:54:00,47.2,24.1,30.01,NE,42,10.0,17.0,40,0.00,,---,0.00,392.00,VWS V14.01,2013-02-06 22:54:00,
2013-02-06 14:59:00,47.4,23.7,30.00,NE,55,9.0,17.0,39,0.00,,---,0.00,459.00,VWS V14.01,2013-02-06 22:59:00,
2013-02-06 15:04:00,48.0,24.2,30.00,NNE,20,8.0,15.0,39,0.00,,---,0.00,443.00,VWS V14.01,2013-02-06 23:04:00,
2013-02-06 15:09:00,48.3,23.3,30.00,NNE,30,10.0,18.0,37,0.00,,---,0.00,339.00,VWS V14.01,2013-02-06 23:09:00,
2013-02-06 15:14:00,48.3,23.3,30.00,ENE,59,10.0,18.0,37,0.00,,---,0.00,313.00,VWS V14.01,2013-02-06 23:14:00,
2013-02-06 15:19:00,48.3,22.6,30.00,ENE,60,8.0,18.0,36,0.00,,---,0.00,304.00,VWS V14.01,2013-02-06 23:19:00,
2013-02-06 15:24:00,48.0,23.0,30.00,NE,52,11.0,18.0,37,0.00,,---,0.00,244.00,VWS V14.01,2013-02-06 23:24:00,
2013-02-06 15:29:00,47.8,22.8,30.00,NNE,23,7.0,18.0,37,0.00,,---,0.00,214.00,VWS V14.01,2013-02-06 23:29:00,
2013-02-06 15:34:00,47.7,23.4,29.99,NNE,26,7.0,11.0,38,0.00,,---,0.00,348.00,VWS V14.01,2013-02-06 23:34:00,
2013-02-06 15:39:00,47.7,23.4,29.99,NE,56,6.0,14.0,38,0.00,,---,0.00,146.00,VWS V14.01,2013-02-06 23:39:00,
2013-02-06 15:44:00,47.4,23.1,29.99,ENE,66,3.0,14.0,38,0.00,,---,0.00,120.00,VWS V14.01,2013-02-06 23:44:00,
2013-02-06 15:49:00,47.1,23.4,29.99,NE,38,3.0,14.0,39,0.00,,---,0.00,128.00,VWS V14.01,2013-02-06 23:49:00,
2013-02-06 15:54:00,47.0,23.3,29.99,NNE,26,4.0,14.0,39,0.00,,---,0.00,197.00,VWS V14.01,2013-02-06 23:54:00,
2013-02-06 15:59:00,47.0,23.3,29.99,NNE,32,3.0,14.0,39,0.00,,---,0.00,186.00,VWS V14.01,2013-02-06 23:59:00,
2013-02-06 16:04:00,47.0,23.3,29.99,North,9,8.0,8.0,39,0.00,,---,0.00,123.00,VWS V14.01,2013-02-07 00:04:00,
2013-02-06 16:09:00,46.8,23.2,29.99,NNE,33,2.0,8.0,39,0.00,,---,0.00,149.00,VWS V14.01,2013-02-07 00:09:00,
2013-02-06 16:14:00,46.7,23.1,29.98,NE,39,1.0,8.0,39,0.00,,---,0.00,141.00,VWS V14.01,2013-02-07 00:14:00,
2013-02-06 16:19:00,46.8,23.8,29.98,NE,53,4.0,8.0,40,0.00,,---,0.00,171.00,VWS V14.01,2013-02-07 00:19:00,
2013-02-06 16:24:00,47.1,24.0,29.98,North,5,6.0,8.0,40,0.00,,---,0.00,163.00,VWS V14.01,2013-02-07 00:24:00,
2013-02-06 16:29:00,47.4,23.7,29.98,NE,43,3.0,8.0,39,0.00,,---,0.00,98.00,VWS V14.01,2013-02-07 00:29:00,
2013-02-06 16:34:00,47.5,23.8,29.98,NNE,31,2.0,7.0,39,0.00,,---,0.00,113.00,VWS V14.01,2013-02-07 00:34:00,
2013-02-06 16:39:00,47.4,23.7,29.97,NNE,17,7.0,9.0,39,0.00,,---,0.00,93.00,VWS V14.01,2013-02-07 00:39:00,
2013-02-06 16:44:00,47.4,23.1,29.97,ENE,65,4.0,12.0,38,0.00,,---,0.00,63.00,VWS V14.01,2013-02-07 00:44:00,
2013-02-06 16:49:00,47.1,22.8,29.97,ENE,57,4.0,12.0,38,0.00,,---,0.00,44.00,VWS V14.01,2013-02-07 00:49:00,
2013-02-06 16:54:00,46.6,23.0,29.97,NNE,25,4.0,12.0,39,0.00,,---,0.00,28.00,VWS V14.01,2013-02-07 00:54:00,
2013-02-06 16:59:00,46.1,22.5,29.97,NNE,29,3.0,12.0,39,0.00,,---,0.00,23.00,VWS V14.01,2013-02-07 00:59:00,
2013-02-06 17:04:00,45.6,22.7,29.97,ENE,61,7.0,9.0,40,0.00,,---,0.00,18.00,VWS V14.01,2013-02-07 01:04:00,
2013-02-06 17:09:00,45.1,22.2,29.97,ENE,64,5.0,9.0,40,0.00,,---,0.00,14.00,VWS V14.01,2013-02-07 01:09:00,
2013-02-06 17:14:00,44.7,22.5,29.97,NE,38,3.0,9.0,41,0.00,,---,0.00,11.00,VWS V14.01,2013-02-07 01:14:00,
2013-02-06 17:19:00,44.4,22.8,29.97,North,11,0.0,9.0,42,0.00,,---,0.00,5.00,VWS V14.01,2013-02-07 01:19:00,
2013-02-06 17:24:00,44.1,22.5,29.96,NE,43,3.0,9.0,42,0.00,,---,0.00,0.00,VWS V14.01,2013-02-07 01:24:00,
2013-02-06 17:29:00,43.7,23.2,29.96,North,11,3.0,9.0,44,0.00,,---,0.00,0.00,VWS V14.01,2013-02-07 01:29:00,
2013-02-06 17:34:00,43.4,22.4,29.97,NE,42,2.0,6.0,43,0.00,,---,0.00,0.00,VWS V14.01,2013-02-07 01:34:00,
2013-02-06 17:39:00,43.1,22.7,29.97,North,5,1.0,6.0,44,0.00,,---,0.00,0.00,VWS V14.01,2013-02-07 01:39:00,
2013-02-06 17:44:00,42.7,22.9,29.96,NNE,32,3.0,6.0,45,0.00,,---,0.00,0.00,VWS V14.01,2013-02-07 01:44:00,
2013-02-06 17:49:00,42.3,22.5,29.96,NNE,19,3.0,6.0,45,0.00,,---,0.00,0.00,VWS V14.01,2013-02-07 01:49:00,
2013-02-06 17:54:00,42.1,22.8,29.96,NNW,342,2.0,6.0,46,0.00,,---,0.00,0.00,VWS V14.01,2013-02-07 01:54:00,
2013-02-06 17:59:00,41.8,22.5,29.96,North,355,2.0,6.0,46,0.00,,---,0.00,0.00,VWS V14.01,2013-02-07 01:59:00,
2013-02-06 18:04:00,41.6,22.9,29.96,NNE,26,3.0,5.0,47,0.00,,---,0.00,0.00,VWS V14.01,2013-02-07 02:04:00,
2013-02-06 18:09:00,41.3,22.6,29.96,North,5,2.0,5.0,47,0.00,,---,0.00,0.00,VWS V14.01,2013-02-07 02:09:00,
2013-02-06 18:14:00,41.2,23.0,29.96,NNE,17,1.0,6.0,48,0.00,,---,0.00,0.00,VWS V14.01,2013-02-07 02:14:00,
2013-02-06 18:19:00,41.0,22.8,29.95,NNE,28,2.0,6.0,48,0.00,,---,0.00,0.00,VWS V14.01,2013-02-07 02:19:00,
2013-02-06 18:24:00,41.0,22.8,29.95,NNE,20,1.0,6.0,48,0.00,,---,0.00,0.00,VWS V14.01,2013-02-07 02:24:00,
2013-02-06 18:29:00,41.0,22.8,29.95,NNE,19,0.0,6.0,48,0.00,,---,0.00,0.00,VWS V14.01,2013-02-07 02:29:00,
2013-02-06 18:34:00,40.9,22.7,29.95,North,360,2.0,3.0,48,0.00,,---,0.00,0.00,VWS V14.01,2013-02-07 02:34:00,
2013-02-06 18:39:00,40.7,23.0,29.95,NNE,20,3.0,4.0,49,0.00,,---,0.00,0.00,VWS V14.01,2013-02-07 02:39:00,
2013-02-06 18:44:00,40.5,22.9,29.95,North,5,0.0,5.0,49,0.00,,---,0.00,0.00,VWS V14.01,2013-02-07 02:44:00,
2013-02-06 18:49:00,40.5,23.3,29.95,NNE,14,2.0,5.0,50,0.00,,---,0.00,0.00,VWS V14.01,2013-02-07 02:49:00,
2013-02-06 18:54:00,40.4,22.8,29.95,North,5,0.0,5.0,49,0.00,,---,0.00,0.00,VWS V14.01,2013-02-07 02:54:00,
2013-02-06 18:59:00,40.2,23.1,29.95,NNW,338,1.0,5.0,50,0.00,,---,0.00,0.00,VWS V14.01,2013-02-07 02:59:00,
2013-02-06 19:04:00,39.7,23.5,29.95,NNW,345,0.0,2.0,52,0.00,,---,0.00,0.00,VWS V14.01,2013-02-07 03:04:00,
2013-02-06 19:09:00,39.3,23.2,29.95,North,11,3.0,3.0,52,0.00,,---,0.00,0.00,VWS V14.01,2013-02-07 03:09:00,
2013-02-06 19:14:00,39.0,22.9,29.95,North,355,1.0,3.0,52,0.00,,---,0.00,0.00,VWS V14.01,2013-02-07 03:14:00,
2013-02-06 19:19:00,38.8,23.1,29.95,North,5,1.0,5.0,53,0.00,,---,0.00,0.00,VWS V14.01,2013-02-07 03:19:00,
2013-02-06 19:24:00,38.8,23.6,29.95,North,10,0.0,5.0,54,0.00,,---,0.00,0.00,VWS V14.01,2013-02-07 03:24:00,
2013-02-06 19:29:00,38.6,23.4,29.95,North,360,0.0,5.0,54,0.00,,---,0.00,0.00,VWS V14.01,2013-02-07 03:29:00,
2013-02-06 19:34:00,38.2,23.5,29.95,North,360,0.0,1.0,55,0.00,,---,0.00,0.00,VWS V14.01,2013-02-07 03:34:00,
2013-02-06 19:39:00,37.9,23.6,29.95,NNE,31,1.0,2.0,56,0.00,,---,0.00,0.00,VWS V14.01,2013-02-07 03:39:00,
2013-02-06 19:44:00,37.7,23.9,29.95,NNE,31,0.0,2.0,57,0.00,,---,0.00,0.00,VWS V14.01,2013-02-07 03:44:00,
2013-02-06 19:49:00,37.3,23.9,29.95,NNE,31,0.0,2.0,58,0.00,,---,0.00,0.00,VWS V14.01,2013-02-07 03:49:00,
2013-02-06 19:54:00,37.0,24.0,29.95,NNE,15,0.0,2.0,59,0.00,,---,0.00,0.00,VWS V14.01,2013-02-07 03:54:00,
2013-02-06 19:59:00,36.7,23.7,29.95,North,11,1.0,2.0,59,0.00,,---,0.00,0.00,VWS V14.01,2013-02-07 03:59:00,
2013-02-06 20:04:00,36.6,24.0,29.95,North,9,0.0,2.0,60,0.00,,---,0.00,0.00,VWS V14.01,2013-02-07 04:04:00,
2013-02-06 20:09:00,36.4,24.2,29.95,North,351,0.0,2.0,61,0.00,,---,0.00,0.00,VWS V14.01,2013-02-07 04:09:00,
2013-02-06 20:14:00,36.1,24.4,29.95,North,351,0.0,2.0,62,0.00,,---,0.00,0.00,VWS V14.01,2013-02-07 04:14:00,
2013-02-06 20:19:00,35.9,24.2,29.95,North,351,0.0,2.0,62,0.00,,---,0.00,0.00,VWS V14.01,2013-02-07 04:19:00,
2013-02-06 20:24:00,35.7,24.0,29.95,North,351,0.0,2.0,62,0.00,,---,0.00,0.00,VWS V14.01,2013-02-07 04:24:00,
2013-02-06 20:29:00,35.7,24.4,29.95,North,351,0.0,2.0,63,0.00,,---,0.00,0.00,VWS V14.01,2013-02-07 04:29:00,
2013-02-06 20:34:00,35.6,24.3,29.95,North,351,0.0,0.0,63,0.00,,---,0.00,0.00,VWS V14.01,2013-02-07 04:34:00,
2013-02-06 20:39:00,35.6,24.6,29.95,West,264,2.0,3.0,64,0.00,,---,0.00,0.00,VWS V14.01,2013-02-07 04:39:00,
2013-02-06 20:44:00,35.5,24.5,29.95,WSW,252,2.0,3.0,64,0.00,,---,0.00,0.00,VWS V14.01,2013-02-07 04:44:00,
2013-02-06 20:49:00,35.4,24.8,29.95,West,259,2.0,3.0,65,0.00,,---,0.00,0.00,VWS V14.01,2013-02-07 04:49:00,
2013-02-06 20:54:00,35.1,24.9,29.95,West,259,0.0,3.0,66,0.00,,---,0.00,0.00,VWS V14.01,2013-02-07 04:54:00,
2013-02-06 20:59:00,35.0,24.8,29.95,West,259,0.0,3.0,66,0.00,,---,0.00,0.00,VWS V14.01,2013-02-07 04:59:00,
2013-02-06 21:00:00,35.0,24.8,29.95,West,259,0.0,3.0,66,0.00,,---,0.00,0.00,VWS V14.01,2013-02-07 05:00:00,
2013-02-06 21:05:00,34.9,24.3,29.95,North,11,0.0,2.0,65,0.00,,---,0.00,0.00,VWS V14.01,2013-02-07 05:05:00,
2013-02-06 21:10:00,35.1,24.2,29.95,NE,53,1.0,3.0,64,0.00,,---,0.00,0.00,VWS V14.01,2013-02-07 05:10:00,
2013-02-06 21:15:00,35.4,24.5,29.94,NE,43,0.0,3.0,64,0.00,,---,0.00,0.00,VWS V14.01,2013-02-07 05:15:00,
2013-02-06 21:20:00,35.6,24.3,29.94,North,5,1.0,5.0,63,0.00,,---,0.00,0.00,VWS V14.01,2013-02-07 05:20:00,
2013-02-06 21:25:00,36.1,24.7,29.94,North,355,1.0,5.0,63,0.00,,---,0.00,0.00,VWS V14.01,2013-02-07 05:25:00,
2013-02-06 21:30:00,36.5,25.1,29.94,North,9,5.0,5.0,63,0.00,,---,0.00,0.00,VWS V14.01,2013-02-07 05:30:00,
2013-02-06 21:35:00,36.9,25.1,29.93,NNE,15,2.0,6.0,62,0.00,,---,0.00,0.00,VWS V14.01,2013-02-07 05:35:00,
2013-02-06 21:40:00,37.1,24.9,29.93,NNE,32,4.0,7.0,61,0.00,,---,0.00,0.00,VWS V14.01,2013-02-07 05:40:00,
2013-02-06 21:45:00,37.4,25.2,29.93,North,5,5.0,7.0,61,0.00,,---,0.00,0.00,VWS V14.01,2013-02-07 05:45:00,
2013-02-06 21:50:00,37.5,24.9,29.93,NNE,27,6.0,7.0,60,0.00,,---,0.00,0.00,VWS V14.01,2013-02-07 05:50:00,
2013-02-06 21:55:00,37.5,24.9,29.93,NNE,20,6.0,7.0,60,0.00,,---,0.00,0.00,VWS V14.01,2013-02-07 05:55:00,
2013-02-06 22:00:00,37.6,25.4,29.93,NNE,32,5.0,9.0,61,0.00,,---,0.00,0.00,VWS V14.01,2013-02-07 06:00:00,
2013-02-06 22:05:00,37.7,25.9,29.93,NE,50,7.0,9.0,62,0.00,,---,0.00,0.00,VWS V14.01,2013-02-07 06:05:00,
2013-02-06 22:10:00,37.8,25.6,29.93,NE,41,2.0,10.0,61,0.00,,---,0.00,0.00,VWS V14.01,2013-02-07 06:10:00,
2013-02-06 22:15:00,37.8,26.0,29.93,North,360,2.0,10.0,62,0.00,,---,0.00,0.00,VWS V14.01,2013-02-07 06:15:00,
2013-02-06 22:20:00,37.7,26.3,29.93,North,10,6.0,10.0,63,0.00,,---,0.00,0.00,VWS V14.01,2013-02-07 06:20:00,
2013-02-06 22:25:00,37.7,26.3,29.93,NE,50,5.0,10.0,63,0.00,,---,0.00,0.00,VWS V14.01,2013-02-07 06:25:00,
2013-02-06 22:30:00,37.7,26.6,29.93,NNE,28,7.0,10.0,64,0.00,,---,0.00,0.00,VWS V14.01,2013-02-07 06:30:00,
2013-02-06 22:35:00,37.7,26.6,29.92,North,5,6.0,7.0,64,0.00,,---,0.00,0.00,VWS V14.01,2013-02-07 06:35:00,
2013-02-06 22:40:00,37.8,26.7,29.93,NNW,336,7.0,8.0,64,0.00,,---,0.00,0.00,VWS V14.01,2013-02-07 06:40:00,
2013-02-06 22:45:00,37.9,26.8,29.93,NNE,22,1.0,9.0,64,0.00,,---,0.00,0.00,VWS V14.01,2013-02-07 06:45:00,
2013-02-06 22:50:00,37.8,27.1,29.93,NNE,32,4.0,9.0,65,0.00,,---,0.00,0.00,VWS V14.01,2013-02-07 06:50:00,
2013-02-06 22:55:00,37.8,27.1,29.92,NE,36,4.0,9.0,65,0.00,,---,0.00,0.00,VWS V14.01,2013-02-07 06:55:00,
2013-02-06 23:00:00,37.7,27.0,29.92,NNE,28,4.0,10.0,65,0.00,,---,0.00,0.00,VWS V14.01,2013-02-07 07:00:00,
2013-02-06 23:05:00,37.7,27.0,29.92,North,360,4.0,9.0,65,0.00,,---,0.00,0.00,VWS V14.01,2013-02-07 07:05:00,
2013-02-06 23:10:00,37.7,27.0,29.92,NNE,16,6.0,13.0,65,0.00,,---,0.00,0.00,VWS V14.01,2013-02-07 07:10:00,
2013-02-06 23:15:00,37.7,27.4,29.92,NE,42,4.0,13.0,66,0.00,,---,0.00,0.00,VWS V14.01,2013-02-07 07:15:00,
2013-02-06 23:20:00,37.6,27.3,29.92,North,5,4.0,13.0,66,0.00,,---,0.00,0.00,VWS V14.01,2013-02-07 07:20:00,
2013-02-06 23:25:00,37.5,27.2,29.92,NNE,28,6.0,13.0,66,0.00,,---,0.00,0.00,VWS V14.01,2013-02-07 07:25:00,
2013-02-06 23:30:00,37.5,27.2,29.92,North,360,7.0,13.0,66,0.00,,---,0.00,0.00,VWS V14.01,2013-02-07 07:30:00,
2013-02-06 23:35:00,37.5,27.2,29.92,NE,41,7.0,13.0,66,0.00,,---,0.00,0.00,VWS V14.01,2013-02-07 07:35:00,
2013-02-06 23:40:00,37.5,27.2,29.92,NE,50,5.0,13.0,66,0.00,,---,0.00,0.00,VWS V14.01,2013-02-07 07:40:00,
2013-02-06 23:45:00,37.5,27.2,29.92,ENE,65,14.0,14.0,66,0.00,,---,0.00,0.00,VWS V14.01,2013-02-07 07:45:00,
2013-02-06 23:50:00,37.7,27.4,29.93,NE,55,7.0,14.0,66,0.00,,---,0.00,0.00,VWS V14.01,2013-02-07 07:50:00,
2013-02-06 23:55:00,37.8,27.5,29.93,NE,49,5.0,15.0,66,0.00,,---,0.00,0.00,VWS V14.01,2013-02-07 07:55:00,